Regional Weather Roundup
Issued by NWS Newport/Morehead, NC

Current Version | Previous Version | Graphics & Text | Print | Product List | Glossary On
Versions: 1 2 3 4 5 6 7 8 9 10 11 12 13 14 15 16 17 18 19 20 21 22 23 24 25 26 27 28 29 30 31 32 33 34 35 36 37 38 39 40 41 42 43 44 45 46 47 48 49 50
000 ASUS42 KMHX 281822 RWRMHX WEATHER ROUNDUP FOR EASTERN NORTH CAROLINA NATIONAL WEATHER SERVICE NEWPORT/MOREHEAD CITY NC 100 PM EST SUN DEC 28 2014 NOTE: "FAIR" INDICATES FEW OR NO CLOUDS BELOW 12,000 FEET WITH NO SIGNIFICANT WEATHER AND/OR OBSTRUCTIONS TO VISIBILITY NCZ015>017-031-032-045>047-102-103-281900- NORTH COAST CITY SKY/WX TMP DP RH WIND PRES REMARKS EDENTON CLOUDY 64 53 67 W7 30.01F ELIZABETH CITY CLOUDY 68 54 60 SW10 30.00F KITTY HAWK CLOUDY 64 57 79 W8 30.00S MANTEO PTSUNNY 63 55 77 W10 30.02F $$ NCZ045>047-081-094-103-104-281900- CENTRAL COAST CITY SKY/WX TMP DP RH WIND PRES REMARKS FRISCO CLOUDY 63 59 87 W9 30.03F SWANQUARTER N/A 64 N/A N/A SW3 30.00S $$ NCZ095-097-098-100-101-281900- SOUTHERN COAST CITY SKY/WX TMP DP RH WIND PRES REMARKS BEAUFORT PTSUNNY 66 57 72 SW12 30.04F CEDAR ISLAND N/A 70 N/A N/A SW16G24 30.06S JACKSONVILLE SUNNY 71 57 61 SW12G18 30.02F PINEY ISLAND CLOUDY 74 57 55 SW22G28 30.03F WILMINGTON SUNNY 73 59 61 SW18G32 30.03F $$ NCZ011>013-027>030-043-044-078>080-089-090>093-098-281900- COASTAL PLAIN CITY SKY/WX TMP DP RH WIND PRES REMARKS AHOSKIE CLOUDY 63 55 73 SW3 30.00F CLINTON PTSUNNY 67 59 75 SW13G20 30.03F ELIZABETHTOWN CLOUDY 70 58 65 W7 30.02F GOLDSBORO CLOUDY 63 62 97 SW12 30.02F GREENVILLE DRIZZLE 64 55 72 SW7 30.04F HAVELOCK PTSUNNY 74 57 55 SW17G23 30.03F KENANSVILLE PTSUNNY 70 56 62 SW8 30.03F KINSTON CLOUDY 66 55 68 W9 30.03F NEW BERN MOSUNNY 73 57 57 W8 30.03F RICHLANDS PTSUNNY 72 57 60 SW14 30.02F ROCKY MOUNT CLOUDY 62 57 83 SW7 30.02F WASHINGTON CLOUDY 65 55 70 SW7 30.02F WHITEVILLE MOSUNNY 74 59 58 SW9G16 30.02F $$ AMZ130-135-150-152-154-156-158-170-250-252-270-ANZ085-086-088-633-658-670-281900- MARINE OBSERVATIONS STATION/POSITION TIME TEMP WIND PRES WAVE SWELL AIR SEA DIR/SP/G HT/PER HT/PER (UTC) (F) (DEG/KT/KT) (MB) (FT/S) (FT/S) CHESAPEAKE LIGHT 1800 59 230/ 18/ 20 1015.1 64 E VA BEACH 1800 55 53 210/ 12/ 12 1015.1 3/12 2/12 DUCK 1800 60 49 260/ 12/ 16 1015.4 2 E DUCK 1800 48 N/A 2/14 2/14 10 NE DUCK 1800 51 N/A 2/13 2/13 OREGON INLET 1800 56 53 210/ 11/ 11 1016.2 13E OREGON INLT 1800 55 N/A 3/13 2/13 HATTERAS CG 1800 63 54 230/ 5/ 8 1017.1 DIAMOND BUOY 1800 70 1016.8 5/14 17 S OCRACOKE NOT AVBL CAPE LOOKOUT 1800 64 260/ 8/ 10 1017.2 BEAUFORT LAB 1800 65 55 240/ 6/ 11 1016.2 30 SE NEW RIVER 1800 63 61 230/ 12/ 14 1017.9 3/14 2/14 5 SE WRIGHTSVLE NOT AVBL 225 S CAPE HAT 1738 73 75 210/ 19/ 21 1019.9 5/14 3/14 41 SE CHARLESTON 1800 73 74 220/ 12/ 14 1018.0 3/12 2/12 $$

USA.gov is the U.S. government's official web portal to all federal, state and local government web resources and services.